Regional Weather Roundup
Issued by NWS

Home | Current Version | Previous Version | Text Only | Print | Product List | Glossary Off
Versions: 1 2 3 4 5 6 7 8 9 10 11 12 13 14 15 16 17 18 19 20 21 22 23 24 25 26 27 28 29 30 31 32 33 34 35 36 37 38 39 40 41 42 43 44 45 46 47 48 49 50

000
ASUS45 KTFX 150019
RWRMT
MONTANA HOURLY WEATHER ROUNDUP
NATIONAL WEATHER SERVICE GREAT FALLS MT
619 PM MDT SUN SEP 14 2014

NOTE: "FAIR" INDICATES FEW OR NO CLOUDS BELOW 12000 FEET WITH NO
SIGNIFICANT WEATHER AND/OR OBSTRUCTIONS TO VISIBILITY.

* THESE STATIONS ARE NOT UNDER NWS QUALITY CONTROL. THEY DO NOT
   REPORT WEATHER SUCH AS PRECIPITATION OR FOG.

MTZ001>007-043-150100-
WEST OF THE DIVIDE
CITY           SKY/WX    TMP DP  RH WIND       PRES   REMARKS
KALISPELL      CLEAR     72  30  21 CALM      30.05S
MISSOULA       CLEAR     75  30  19 N14       30.01F
BUTTE          CLEAR     68  30  24 W9        30.12R
MULLAN PASS    CLEAR     64  27  25 CALM      30.15S
* LINCOLN      N/A       72  25  17 S6G12      N/A
* LOOKOUT PASS N/A       69  31  24 SW2        N/A
* POLSON       N/A       67  32  27 N2         N/A
* RONAN APT    CLEAR     72  30  21 NW6        N/A
* SEELEY LAKE  N/A       73  30  20 NW6        N/A
* THOMP F APT  CLEAR     75  26  16 S6G16      N/A
$$

MTZ008-052>055-150100-
SOUTHWEST MONTANA
CITY           SKY/WX    TMP DP  RH WIND       PRES   REMARKS
BOZEMAN        CLEAR     70  36  29 CALM      30.09S
DILLON         CLEAR     73  28  19 NE12      30.06S
W YELLOWSTONE  PTCLDY    68  16  13 NW8       30.15R
* THREE FORKS  CLEAR     72  39  30 N/A        N/A
* BOULDER HILL N/A       61  28  29 N7         N/A
* MONIDA PASS  N/A       70  23  17 NW10G18    N/A
* RAYNOLDS PAS N/A       68  68 100 N14G19     N/A
* WHITEHALL    N/A       71  38  30 SE9G16     N/A
* WISE RIVER   N/A       73  13  10 NW12G22    N/A
$$

MTZ009>010-012-014-046-048-049-054-150100-
EAST SLOPES AND CENTRAL MONTANA
CITY           SKY/WX    TMP DP  RH WIND       PRES   REMARKS
CUT BANK       CLEAR     66  34  31 VRB5      30.11S
GREAT FALLS    CLEAR     63  39  41 E7        30.12R
HELENA         CLEAR     72  30  21 NE7       30.08S
MALMSTROM AFB  CLEAR     63  37  38 E7        30.13S
* CONRAD       CLEAR     64  39  40 N/A        N/A
* EAST GLACIER N/A       61  33  35 E5         N/A
* MONARCH      N/A       57  24  28 VRB4G9     N/A
* PENDROY      N/A       62  28  28 NE6G11     N/A
* ROGERS PASS  N/A       54  34  47 W3         N/A
* SAINT MARY   N/A       65  35  33 N6G11      N/A
* SWEET GRASS  N/A       63  31  30 VRB5G12    N/A
* WHITE SULPH  N/A       67  29  24 W5G11      N/A
$$

MTZ011-013-016-021-035-040-045-047-050-051-150100-
NORTH CENTRAL MONTANA
CITY           SKY/WX    TMP DP  RH WIND       PRES   REMARKS
HAVRE          CLEAR     63  34  34 CALM      30.12S
LEWISTOWN      CLEAR     61  36  39 N8        30.15R
* FORT BENTON  CLEAR     64  36  35 E6        30.13S
* CHESTER      N/A       64  34  33 SW2G9      N/A
* DENTON       N/A       61  33  35 N10        N/A
* JUDITH GAP   N/A       57  31  37 N20G26     N/A
* LOMA         N/A       65  36  34 NW2        N/A
$$

MTZ017>020-022>027-061-062-150100-
NORTHEAST MONTANA
CITY           SKY/WX    TMP DP  RH WIND       PRES   REMARKS
GLASGOW        PTCLDY    57  30  36 S5        30.14S
GLENDIVE       CLOUDY    54  34  47 NE6       30.17S
JORDAN         CLEAR     61  34  36 E8        30.13R
SIDNEY         CLOUDY   N/A N/A N/A CALM      30.17S
WOLF POINT     MOCLDY    57  34  42 SW3       30.15S
* BEAVER HILL  N/A       53  31  43 N6         N/A
* CIRCLE       N/A       55  37  51 N/A        N/A
* LINDSAY DVD  N/A       52  29  41 NE5        N/A
* NAVAJO       N/A       55  31  40 SW6G11     N/A
* SACO         N/A       58  36  44 SE3G8      N/A
$$

MTZ028>042-056>058-150100-
SOUTHCENTRAL AND SOUTHEAST MONTANA
CITY           SKY/WX    TMP DP  RH WIND       PRES   REMARKS
BAKER          CLOUDY    55 N/A N/A E8        30.14R
BILLINGS       FAIR      63  39  41 NE10      30.11R
LIVINGSTON     CLEAR     70  39  32 E12       30.08R
MILES CITY     CLOUDY    61  32  34 NE16      30.11R
* LAUREL APT   CLEAR     63  37  38 NE8        N/A
* ROUNDUP APT  CLEAR     63  37  38 N9         N/A
* ALZADA       N/A       55  39  55 E8         N/A
* HYSHAM       N/A       63  33  33 VRB2G9     N/A
* LAME DEER    N/A       58  40  51 N9G14      N/A
* REED POINT   N/A       66  37  34 E8G13      N/A
* ROSCOE HILL  N/A       59  28  31 VRB4G9     N/A
$$

REGIONAL REPORTS...DAKOTAS
CITY           SKY/WX    TMP DP  RH WIND       PRES   REMARKS
WILLISTON      CLOUDY    55  30  39 SE3       30.16S
DICKINSON      CLOUDY    54  32  43 CALM      30.14R
BEACH          N/A       50  32  50 NE5       30.17R
CROSBY         MOCLDY    54  34  47 S5        30.16S
TIOGA          CLOUDY    54  28  37 NE5       30.18S
WATFORD CITY   CLOUDY    54  30  40 N6        30.14S
BISMARCK       PTCLDY    55  34  45 N8        30.15R
GRAND FORKS    MOCLDY    54  43  67 NW5       30.11R
FARGO          CLOUDY    55  41  59 NW3       30.12R
BUFFALO SD     CLOUDY    55  36  49 E9        30.06R
RAPID CITY     MOCLDY    52  39  61 E6        30.12R
$$

REGIONAL REPORTS...WYOMING/IDAHO/WASHINGTON
CITY           SKY/WX    TMP DP  RH WIND       PRES   REMARKS
GILLETTE       PTCLDY    63  43  48 N6        30.10R
SHERIDAN       CLEAR     64  41  43 N7        30.10R
CODY           CLEAR     61  37  41 N7        30.12R
YELLOWSTONE LA PTCLDY    64  16  15 NW6       30.24R
SALMON         CLEAR     79  30  17 CALM      29.95S
MULLAN PASS    CLEAR     64  27  25 CALM      30.15S
SAND POINT     CLEAR     73  37  27 CALM      30.00S
SPOKANE        CLEAR     79  28  15 NE7       29.99S
$$

REGIONAL REPORTS...ALBERTA
CITY           SKY/WX    TMP DP  RH WIND       PRES   REMARKS
CALGARY        MOCLDY    63  37  38 VRB2      30.08F
LETHBRIDGE     FAIR      64  39  40 NE7       30.09S
MEDICINE HAT   FAIR      66  37  34 W10       30.07S
EDMONTON       MOCLDY    63  41  45 NW6       30.03S
WATERTON GATE  N/A       63  36  37 E3         N/A
CARDSTON       N/A       63  39  41 NE5        N/A
MILK RIVER     N/A       64  36  35 NW8        N/A
$$

REGIONAL REPORTS...SASKATCHEWAN
CITY           SKY/WX    TMP DP  RH WIND       PRES   REMARKS
MOOSE JAW      PTCLDY    57  36  46 CALM      30.13S
REGINA         MOCLDY    54  37  53 N2        30.13S
VAL MARIE      N/A       54  39  57 S3         N/A
ASSINIBOIA     N/A       54  41  62 SW1        N/A
CORONACH       N/A       54  34  47 SW3        N/A

$$




USA.gov is the U.S. government's official web portal to all federal, state and local government web resources and services.